Temp
-7 -7 -7 -7 -7 -7 -7 -7 -7 -7 -7 -7 -7 -7 -7 -7 -7 -7 -7 -8 -7 -8 -8 -8 -8 -7 -7 -7 -7 -8 -7 -8 -7 -7 -7 -7 -8 -7 -7 -7 -7 -7 -7
-7 -7 -7 -7 -7 -7 -7 -7 -7 -7 -7 -7 -7 -7 -7 -7 -7 -7 -8 -8 -7 -8 -8 -8 -8 -8 -7 -7 -7 -7 -8 -8 -8 -8 -8 -7 -8 -8 -7 -7 -7 -7 -7
-7 -7 -8 -7 -7 -7 -7 -7 -7 -7 -7 -7 -7 -7 -8 -7 -7 -7 -7 -8 -8 -8 -8 -7 -7 -8 -8 -7 -7 -8 -8 -8 -8 -8 -8 -8 -7 -8 -8 -8 -7 -7 -7
-7 -7 -8 -8 -8 -8 -8 -8 -8 -8 -8 -7 -7 -7 -7 -7 -8 -8 -7 -7 -7 -7 -7 -7 -7 -7 -7 -8 -8 -7 -7 -8 -8 -8 -8 -8 -8 -8 -8 -7 -8 -8 -8
-7 -8 -8 -7 -8 -8 -8 -8 -8 -8 -8 -8 -7 -7 -7 -7 -7 -7 -7 -7 -7 -7 -8 -8 -7 -7 -7 -7 -8 -8 -7 -7 -8 -8 -8 -8 -8 -8 -8 -8 -8 -8 -8
-7 -7 -8 -8 -8 -8 -8 -8 -8 -8 -8 -8 -7 -7 -7 -7 -7 -7 -7 -7 -7 -7 -7 -7 -7 -7 -7 -7 -7 -7 -7 -7 -7 -8 -8 -8 -8 -8 -8 -8 -7 -8 -8
-7 -7 -7 -8 -8 -8 -8 -8 -8 -8 -8 -8 -8 -8 -7 -7 -7 -7 -7 -7 -7 -7 -7 -6 -6 -7 -7 -7 -7 -7 -7 -7 -7 -7 -8 -8 -8 -8 -7 -8 -8 -8 -8
-7 -7 -8 -8 -8 -8 -8 -8 -8 -8 -8 -8 -8 -8 -8 -8 -8 -8 -7 -7 -7 -7 -7 -7 -7 -7 -6 -7 -7 -7 -7 -7 -7 -7 -8 -8 -8 -8 -8 -8 -8 -8 -8
-8 -8 -8 -8 -8 -8 -8 -8 -8 -8 -8 -8 -8 -9 -8 -8 -8 -8 -7 -7 -7 -7 -7 -7 -7 -7 -7 -6 -6 -7 -7 -7 -7 -7 -8 -8 -8 -8 -8 -8 -8 -8 -8
-10 -9 -9 -8 -8 -8 -8 -8 -8 -8 -9 -9 -9 -9 -9 -8 -8 -8 -8 -7 -7 -7 -7 -7 -7 -7 -7 -7 -7 -7 -7 -7 -7 -7 -7 -7 -8 -8 -8 -9 -8 -9 -8
-9 -10 -10 -9 -9 -8 -8 -8 -8 -8 -9 -9 -9 -9 -8 -8 -8 -8 -8 -7 -7 -7 -7 -7 -7 -6 -6 -7 -7 -7 -7 -7 -7 -7 -7 -8 -8 -8 -8 -9 -9 -8 -8
-9 -9 -9 -10 -10 -9 -9 -8 -8 -9 -9 -9 -8 -8 -8 -8 -8 -8 -8 -8 -8 -7 -7 -7 -7 -7 -6 -6 -6 -6 -6 -6 -7 -7 -7 -7 -8 -8 -8 -8 -8 -8 -8
-9 -9 -9 -9 -11 -10 -10 -10 -9 -8 -9 -9 -8 -8 -8 -8 -8 -8 -8 -8 -8 -7 -7 -7 -7 -7 -7 -6 -6 -6 -6 -6 -7 -7 -7 -7 -7 -8 -8 -8 -8 -8 -8
-8 -9 -10 -9 -10 -11 -10 -10 -10 -8 -8 -9 -8 -8 -8 -8 -8 -8 -8 -7 -7 -7 -7 -7 -7 -7 -7 -7 -6 -6 -6 -6 -7 -7 -8 -8 -7 -8 -8 -8 -8 -8 -8
-9 -10 -10 -8 -10 -10 -11 -10 -10 -9 -9 -8 -8 -8 -8 -8 -8 -8 -8 -7 -8 -8 -8 -7 -7 -7 -7 -7 -7 -7 -7 -8 -8 -8 -7 -8 -8 -8 -8 -8 -8 -8 -8
-9 -8 -9 -9 -7 -10 -10 -10 -10 -10 -9 -8 -8 -8 -8 -8 -8 -8 -8 -9 -9 -9 -8 -7 -7 -6 -7 -7 -7 -8 -8 -8 -8 -7 -8 -8 -8 -8 -8 -8 -9 -9 -9
-9 -9 -9 -9 -9 -8 -9 -10 -9 -9 -8 -8 -8 -8 -8 -8 -9 -9 -9 -9 -9 -8 -8 -7 -7 -6 -7 -7 -8 -8 -8 -8 -8 -8 -8 -8 -8 -9 -9 -8 -9 -9 -9
-9 -10 -10 -8 -9 -10 -9 -9 -9 -9 -8 -8 -8 -9 -8 -9 -9 -10 -10 -10 -9 -8 -8 -10 -9 -8 -7 -8 -8 -8 -8 -8 -8 -8 -8 -8 -9 -9 -9 -9 -9 -9 -9
-9 -9 -9 -10 -9 -10 -9 -8 -8 -8 -8 -8 -9 -9 -9 -9 -10 -10 -10 -10 -10 -9 -9 -10 -10 -9 -9 -8 -8 -8 -8 -8 -8 -8 -8 -9 -9 -9 -9 -10 -9 -9 -9
-9 -8 -8 -9 -10 -9 -7 -7 -7 -8 -8 -9 -9 -9 -9 -10 -10 -10 -10 -10 -10 -10 -10 -10 -10 -9 -8 -8 -8 -9 -8 -8 -8 -9 -9 -9 -9 -9 -10 -10 -10 -10 -10
-8 -7 -7 -8 -9 -8 -8 -7 -8 -9 -9 -9 -9 -9 -10 -10 -10 -10 -10 -10 -11 -11 -10 -11 -11 -11 -10 -10 -9 -9 -9 -9 -9 -9 -9 -9 -9 -10 -10 -10 -10 -10 -9
-8 -7 -8 -8 -8 -8 -8 -9 -10 -10 -10 -10 -9 -9 -10 -11 -11 -10 -10 -11 -11 -11 -11 -10 -10 -10 -11 -11 -11 -11 -10 -10 -10 -10 -10 -10 -10 -11 -11 -11 -11 -11 -10
-8 -9 -8 -8 -9 -10 -10 -10 -10 -10 -10 -10 -10 -10 -11 -11 -11 -10 -11 -11 -11 -11 -10 -10 -10 -10 -10 -10 -10 -10 -11 -11 -11 -11 -11 -11 -11 -11 -11 -11 -11 -11 -11
-10 -10 -10 -10 -10 -11 -11 -10 -10 -10 -11 -10 -10 -11 -11 -11 -10 -10 -11 -11 -11 -11 -11 -11 -10 -10 -10 -10 -10 -10 -10 -11 -11 -11 -11 -11 -11 -11 -11 -11 -11 -11 -11
-9 -10 -10 -11 -11 -11 -11 -11 -11 -11 -10 -11 -11 -11 -12 -11 -11 -11 -11 -11 -11 -11 -10 -10 -10 -10 -10 -10 -10 -10 -11 -11 -11 -11 -11 -11 -11 -11 -11 -11 -11 -11 -11
-10 -10 -11 -12 -10 -11 -11 -11 -11 -11 -11 -11 -11 -11 -11 -11 -11 -11 -11 -11 -11 -11 -11 -11 -10 -10 -10 -11 -11 -11 -11 -11 -11 -11 -11 -11 -11 -11 -11 -11 -11 -11 -11
Height
5873 5877 5878 5879 5882 5885 5886 5889 5890 5892 5893 5894 5895 5896 5898 5900 5901 5901 5901 5901 5901 5901 5900 5901 5901 5903 5903 5904 5903 5903 5903 5903 5903 5903 5903 5903 5902 5902 5901 5901 5900 5901 5902
5873 5875 5876 5877 5879 5881 5883 5885 5887 5889 5890 5892 5892 5893 5894 5895 5897 5898 5898 5898 5898 5898 5899 5898 5899 5899 5900 5901 5901 5901 5900 5900 5900 5900 5899 5899 5898 5898 5897 5897 5894 5895 5897
5873 5874 5875 5876 5878 5879 5880 5882 5884 5885 5887 5888 5889 5890 5890 5891 5892 5893 5894 5894 5894 5895 5897 5898 5898 5898 5897 5897 5898 5898 5897 5897 5896 5896 5896 5895 5895 5894 5893 5893 5892 5891 5891
5873 5874 5875 5875 5877 5878 5878 5880 5880 5881 5882 5883 5885 5886 5886 5887 5887 5888 5889 5890 5891 5892 5892 5892 5892 5893 5892 5893 5892 5892 5892 5892 5891 5892 5892 5891 5891 5890 5889 5888 5888 5888 5889
5869 5871 5873 5874 5875 5875 5876 5876 5878 5878 5879 5880 5881 5881 5882 5882 5882 5884 5884 5884 5885 5885 5885 5885 5885 5886 5886 5886 5887 5886 5886 5886 5886 5885 5886 5887 5886 5885 5885 5884 5883 5883 5883
5867 5868 5869 5871 5872 5872 5873 5874 5875 5876 5877 5877 5877 5877 5878 5878 5879 5880 5880 5879 5878 5878 5877 5877 5877 5878 5878 5878 5878 5878 5879 5879 5879 5879 5879 5880 5880 5879 5878 5879 5877 5876 5879
5863 5864 5865 5867 5869 5871 5871 5872 5873 5874 5873 5873 5874 5873 5873 5874 5873 5873 5873 5873 5871 5870 5869 5870 5869 5869 5870 5870 5869 5870 5871 5872 5872 5872 5873 5873 5872 5872 5872 5873 5871 5871 5871
5859 5861 5863 5866 5868 5869 5870 5870 5871 5870 5869 5869 5869 5869 5867 5868 5866 5867 5866 5865 5865 5864 5862 5861 5861 5860 5860 5861 5862 5862 5862 5863 5863 5864 5866 5865 5865 5864 5865 5865 5865 5866 5867
5856 5858 5859 5861 5863 5864 5865 5867 5867 5867 5865 5864 5862 5862 5861 5861 5861 5860 5859 5859 5858 5857 5855 5853 5852 5852 5850 5850 5853 5854 5853 5854 5853 5854 5855 5855 5855 5856 5856 5856 5856 5856 5858
5848 5851 5854 5856 5857 5857 5859 5860 5861 5862 5862 5862 5859 5857 5856 5856 5855 5853 5851 5850 5850 5849 5848 5846 5843 5842 5841 5840 5841 5842 5843 5843 5841 5843 5845 5846 5846 5846 5848 5847 5846 5846 5846
5841 5840 5845 5849 5852 5852 5853 5853 5854 5855 5855 5856 5855 5853 5852 5850 5849 5846 5844 5842 5841 5840 5839 5837 5833 5831 5831 5830 5829 5830 5831 5830 5830 5831 5834 5834 5835 5835 5836 5836 5837 5836 5837
5836 5837 5832 5836 5843 5846 5846 5846 5848 5849 5849 5850 5848 5846 5845 5844 5841 5839 5837 5835 5831 5829 5826 5825 5823 5820 5819 5818 5818 5818 5818 5818 5818 5819 5820 5822 5823 5823 5824 5824 5824 5826 5826
5827 5832 5830 5832 5830 5837 5840 5839 5840 5842 5842 5843 5841 5840 5837 5835 5833 5830 5828 5824 5821 5817 5813 5811 5809 5807 5805 5805 5805 5805 5805 5805 5805 5806 5808 5810 5809 5810 5812 5814 5814 5815 5814
5808 5819 5820 5822 5826 5826 5830 5833 5833 5834 5835 5834 5833 5832 5830 5827 5824 5821 5817 5813 5810 5806 5801 5797 5795 5794 5792 5791 5791 5792 5792 5792 5792 5793 5795 5795 5796 5797 5799 5801 5802 5803 5803
5805 5808 5805 5793 5811 5819 5821 5825 5824 5826 5827 5827 5826 5825 5824 5821 5817 5812 5806 5801 5797 5789 5784 5782 5781 5780 5778 5777 5777 5777 5778 5779 5780 5780 5781 5782 5783 5784 5786 5788 5789 5791 5792
5793 5794 5787 5793 5770 5800 5808 5814 5815 5817 5818 5819 5819 5817 5816 5813 5808 5802 5795 5791 5787 5784 5774 5768 5766 5766 5765 5765 5764 5766 5767 5768 5769 5769 5769 5769 5770 5771 5772 5774 5776 5778 5779
5786 5786 5783 5780 5764 5771 5793 5801 5805 5808 5808 5809 5810 5810 5808 5806 5801 5795 5790 5787 5780 5772 5760 5754 5752 5753 5753 5753 5755 5756 5758 5758 5759 5759 5758 5758 5758 5759 5760 5762 5763 5764 5765
5776 5772 5767 5766 5773 5781 5786 5791 5793 5798 5800 5802 5803 5803 5799 5798 5793 5788 5784 5781 5774 5766 5754 5747 5745 5745 5744 5745 5747 5748 5748 5748 5749 5748 5747 5747 5747 5747 5748 5749 5750 5752 5752
5756 5756 5753 5754 5767 5778 5783 5784 5783 5787 5792 5794 5795 5795 5792 5789 5786 5782 5777 5774 5767 5762 5752 5745 5743 5742 5740 5740 5740 5740 5740 5740 5740 5739 5738 5737 5736 5736 5737 5737 5738 5739 5740
5749 5740 5731 5742 5759 5773 5776 5775 5777 5780 5784 5787 5788 5788 5785 5782 5780 5776 5775 5768 5762 5758 5750 5745 5742 5740 5738 5737 5736 5734 5734 5735 5734 5733 5732 5730 5729 5728 5727 5727 5728 5729 5730
5744 5738 5742 5744 5762 5765 5768 5769 5769 5772 5776 5778 5780 5780 5777 5773 5773 5769 5768 5764 5759 5753 5750 5747 5744 5740 5736 5733 5730 5729 5728 5727 5727 5726 5726 5725 5723 5722 5721 5721 5720 5720 5720
5733 5737 5741 5744 5753 5758 5758 5759 5757 5764 5768 5771 5771 5771 5768 5764 5764 5762 5760 5758 5754 5748 5747 5746 5745 5742 5739 5735 5732 5729 5727 5725 5724 5722 5721 5720 5718 5717 5717 5716 5715 5713 5712
5731 5733 5736 5741 5745 5746 5745 5747 5753 5758 5761 5762 5764 5761 5758 5756 5758 5757 5754 5752 5749 5744 5744 5744 5743 5742 5739 5736 5734 5732 5729 5728 5726 5724 5722 5720 5719 5717 5716 5715 5713 5711 5710
5721 5726 5729 5731 5734 5737 5741 5747 5750 5752 5754 5753 5753 5752 5751 5751 5753 5751 5749 5746 5745 5740 5739 5739 5738 5737 5735 5733 5731 5729 5728 5726 5724 5722 5721 5719 5718 5716 5715 5713 5711 5709 5707
5713 5716 5719 5723 5727 5732 5736 5741 5744 5745 5746 5744 5744 5744 5743 5745 5744 5743 5743 5742 5737 5736 5736 5734 5733 5731 5729 5727 5725 5723 5722 5721 5719 5717 5716 5714 5712 5711 5709 5707 5705 5702 5700
5704 5709 5712 5716 5723 5729 5731 5733 5735 5737 5738 5736 5736 5736 5736 5737 5737 5736 5735 5732 5732 5731 5729 5728 5727 5725 5723 5722 5720 5717 5715 5713 5711 5709 5707 5705 5704 5702 5700 5698 5695 5692 5690
Wind_Speed
12 14 16 16 16 16 17 16 15 15 15 14 12 14 16 17 15 15 14 14 16 21 19 12 11 9 10 9 12 12 11 11 15 15 14 15 16 14 18 19 22 23 18
12 15 14 12 13 14 15 14 14 12 11 12 12 13 15 16 18 18 17 15 17 17 14 14 13 16 15 13 15 15 16 16 15 17 19 18 21 19 17 16 15 22 21
13 13 13 13 15 16 15 15 15 14 14 13 12 12 13 15 15 16 16 18 19 18 16 16 16 17 19 19 18 19 19 19 20 20 20 20 21 20 19 18 14 19 16
13 11 11 12 13 14 14 13 12 13 12 13 13 13 14 15 16 17 18 17 18 19 19 21 22 21 23 22 23 24 23 24 25 22 22 21 20 21 18 21 17 17 17
10 11 12 13 14 14 14 13 13 13 13 14 15 15 16 17 18 18 19 20 22 22 23 24 25 26 25 25 25 28 27 26 27 26 24 23 23 22 22 20 19 23 21
11 12 13 15 16 16 16 15 14 13 12 12 13 14 16 17 18 18 20 20 22 25 26 26 26 27 27 26 27 28 27 27 28 27 25 25 26 26 24 23 21 18 19
13 13 13 13 13 12 11 11 10 10 11 11 13 14 16 16 16 18 20 22 25 24 26 28 28 28 29 29 30 28 28 28 30 30 28 29 27 28 26 25 26 25 22
15 14 12 11 10 10 12 13 13 13 14 15 16 17 19 19 19 20 23 23 26 29 29 30 32 31 31 32 30 30 31 31 30 32 32 31 31 31 30 30 30 29 25
15 15 15 16 16 17 18 19 20 20 20 20 18 20 22 24 24 24 25 26 28 29 30 32 34 35 37 37 33 33 32 31 33 33 32 34 33 32 34 33 34 34 32
16 18 21 22 22 21 21 20 21 23 24 23 19 19 22 24 25 26 27 28 30 32 33 35 35 36 38 40 38 36 35 35 37 35 33 34 38 39 36 35 36 32 34
24 22 24 24 25 26 24 22 23 25 26 28 26 26 28 29 30 31 31 33 34 36 37 39 40 40 38 38 39 39 38 38 40 39 37 36 36 37 36 37 36 37 34
32 29 28 26 26 28 26 24 27 26 27 30 30 31 32 34 35 36 38 39 39 38 40 42 43 44 44 42 40 40 41 41 41 41 40 40 39 40 38 37 36 36 36
42 39 37 33 27 29 28 26 25 30 30 32 33 33 32 33 35 35 37 40 40 37 37 39 42 45 45 46 44 44 43 43 43 42 42 42 43 42 41 39 39 37 38
39 48 44 38 34 31 29 29 27 31 32 34 33 33 35 35 34 35 38 37 38 39 39 41 43 44 45 45 46 45 44 43 43 42 39 41 44 44 42 42 41 42 40
50 51 57 38 38 37 33 34 30 29 33 33 30 32 35 34 33 36 36 36 37 35 37 38 39 39 40 42 44 44 42 40 39 40 40 42 42 46 46 44 42 42 43
48 51 53 49 48 41 38 39 32 28 32 31 30 31 32 30 32 32 32 31 32 36 35 34 37 39 41 39 39 38 37 36 38 37 38 38 42 45 46 46 45 45 45
48 53 55 53 51 28 50 42 33 27 30 29 28 30 27 30 27 27 29 34 33 32 29 30 28 31 33 33 31 31 31 30 30 34 35 36 38 41 45 46 46 45 45
47 46 60 60 53 40 44 38 26 26 27 25 27 26 26 28 26 27 27 31 33 33 32 22 23 25 27 26 26 28 31 32 33 33 32 32 32 34 39 43 45 47 47
37 42 43 52 60 43 33 31 25 24 23 24 24 25 26 26 24 23 23 25 26 31 30 19 15 14 14 17 20 24 25 25 25 26 27 27 28 31 33 36 38 38 42
30 28 33 40 27 30 30 28 24 20 21 22 22 25 26 24 23 20 24 21 20 22 24 22 17 14 14 14 15 14 14 17 18 19 21 23 25 27 28 29 31 33 36
11 15 11 23 32 30 32 30 20 19 20 20 22 24 25 22 22 20 23 20 18 14 16 16 16 16 16 15 14 14 17 19 17 17 18 20 20 21 22 23 26 30 33
17 10 22 25 28 31 27 19 13 18 19 19 21 23 22 20 21 22 21 19 17 13 13 12 12 11 11 12 13 12 11 8 7 7 7 7 7 7 8 8 9 11 13
26 29 34 30 30 24 17 14 17 20 20 20 22 20 20 19 21 23 21 20 19 15 15 13 14 13 12 12 12 11 11 9 9 8 8 8 8 8 8 9 10 12 13
26 28 27 22 25 19 17 20 21 21 21 21 19 19 20 20 21 19 19 18 19 17 17 16 16 16 15 15 15 16 16 15 15 14 13 12 12 11 13 15 17 18 19
24 26 28 28 25 25 22 20 21 21 22 19 19 19 20 22 21 19 19 20 17 16 17 18 19 20 20 19 19 20 21 21 22 22 23 23 24 25 26 28 28 29 29
23 25 28 25 29 25 21 21 22 23 21 19 22 20 20 22 23 22 21 20 20 22 20 19 21 21 21 21 23 25 26 26 27 27 28 30 32 34 35 35 35 35 35
Wind_Direction
213 215 218 221 222 228 235 239 241 241 247 252 253 251 249 253 258 265 276 259 263 267 242 247 269 276 279 270 264 270 272 267 257 263 277 277 275 278 272 293 266 247 246
218 222 220 219 214 210 219 223 232 239 242 247 246 250 250 249 263 264 267 258 261 288 294 287 281 283 280 273 271 268 267 265 265 267 273 278 288 266 279 282 291 232 230
237 227 224 219 215 215 217 222 230 238 245 250 253 252 257 260 263 267 275 259 263 265 268 272 269 267 272 273 271 269 268 267 266 266 270 279 286 289 268 273 278 241 236
251 248 242 236 236 236 235 234 234 242 250 255 256 258 260 264 268 270 272 270 265 265 267 270 270 268 266 266 268 269 268 268 269 271 270 269 275 286 284 258 254 258 256
263 251 249 243 239 236 238 237 240 244 254 260 265 266 266 265 265 269 269 270 270 271 268 266 268 269 268 266 263 265 267 266 266 265 264 266 272 276 270 268 254 253 253
276 264 256 252 246 243 242 242 243 247 256 263 271 277 280 282 285 288 286 283 279 272 269 267 267 267 268 268 268 265 262 266 268 273 266 264 264 267 270 268 265 253 243
248 246 244 242 243 246 245 244 244 247 254 261 264 267 271 276 283 281 278 279 276 274 274 274 273 271 271 269 266 266 265 263 266 266 264 262 265 258 263 267 268 271 254
244 246 250 251 258 262 263 261 263 261 260 264 269 279 281 275 279 279 279 280 279 277 274 272 274 274 271 269 270 271 269 265 264 265 265 262 263 265 264 263 264 266 263
250 244 238 240 246 252 256 259 261 261 262 260 260 268 272 274 275 277 280 283 283 283 282 281 278 276 275 273 271 269 269 269 267 262 258 258 262 265 267 268 267 258 255
233 247 253 250 248 248 254 260 264 264 264 265 273 278 282 282 280 280 280 280 279 278 279 279 279 277 275 275 275 271 268 266 263 263 263 259 259 264 267 268 270 276 263
233 229 252 253 256 257 254 253 258 263 268 270 274 280 283 286 288 286 284 284 283 283 281 279 278 278 277 276 276 276 273 267 268 268 264 263 262 262 263 264 266 269 268
243 239 233 239 253 259 261 259 263 263 266 269 271 275 279 284 286 287 288 287 286 281 280 278 276 276 276 276 275 277 275 271 267 266 265 265 263 265 264 263 264 265 267
248 247 239 240 236 250 256 251 256 262 267 273 278 280 281 284 286 288 288 288 286 282 280 280 277 274 273 272 272 274 273 272 268 265 263 261 261 262 263 263 265 263 264
245 249 240 234 240 242 244 250 253 263 271 274 276 280 286 288 287 292 294 292 289 285 282 279 276 273 272 271 269 270 271 270 269 267 263 259 257 258 261 261 262 263 264
255 242 259 250 229 240 241 246 253 263 271 274 277 282 286 286 293 299 299 297 294 291 290 286 281 276 275 272 268 267 267 266 269 269 268 263 257 256 257 259 260 260 263
259 261 265 266 241 226 235 238 249 260 267 270 276 282 284 292 301 303 304 306 305 305 300 295 281 272 271 273 271 264 263 265 266 269 270 269 259 255 256 258 259 260 262
262 263 263 264 250 211 225 227 241 257 261 268 277 278 287 299 300 304 306 307 315 315 322 316 295 276 272 266 266 262 262 266 271 270 271 272 270 262 257 257 259 261 262
280 270 269 263 253 240 218 220 234 249 259 266 273 279 290 296 295 298 306 312 325 328 336 322 307 294 271 263 264 266 271 267 272 274 274 271 270 270 264 259 257 260 262
291 282 293 245 247 239 220 227 231 244 257 267 274 279 290 290 293 300 307 315 329 333 345 336 321 305 285 269 268 270 272 273 273 273 270 268 269 271 270 268 266 264 262
300 290 290 208 218 210 231 231 237 245 260 270 270 280 291 284 288 302 308 316 327 339 352 355 342 320 300 287 286 285 282 283 287 284 282 279 275 271 269 269 270 270 268
265 272 286 170 205 218 229 232 230 246 259 266 271 280 284 279 286 296 301 306 314 332 352 6 8 2 353 340 324 299 290 288 283 287 285 288 288 278 276 276 277 276 275
236 247 199 190 211 223 222 221 237 254 261 261 267 276 280 277 283 286 290 290 298 312 315 318 331 345 359 359 3 7 6 5 357 343 323 325 321 304 297 303 309 302 294
209 196 200 212 217 214 213 238 248 251 250 256 266 277 281 277 276 280 281 283 285 297 303 303 303 308 319 326 330 331 333 332 332 332 328 328 326 322 320 321 323 325 324
216 221 221 225 232 219 225 234 242 248 249 255 270 279 283 278 275 280 283 284 284 285 289 294 299 298 298 298 302 305 306 307 307 305 302 299 297 295 298 301 303 304 305
213 223 230 231 217 211 225 233 240 243 251 260 274 274 277 272 270 273 280 281 285 288 288 290 290 289 290 293 296 296 295 294 293 292 291 290 289 289 290 291 292 294 295
207 223 235 219 202 228 227 234 233 239 249 260 269 272 275 271 271 272 276 282 287 290 288 289 286 284 287 294 298 296 294 292 291 290 289 289 289 289 288 287 289 290 290